| time (UTC) | temp C | wind direction | speed KPH | gust KPH | rain 1hr cm | rain 24hr cm | rain mn cm | humidity % | barometer mb |
| 20260507155546 | 15 | 196 | 9.7 | 17.7 | 0.00 | 0.00 | 0.00 | 60 | 1017.0 |
| 20260507155044 | 15 | 230 | 9.7 | 12.9 | 0.00 | 0.00 | 0.00 | 59 | 1017.0 |
| 20260507154540 | 15 | 224 | 9.7 | 12.9 | 0.00 | 0.00 | 0.00 | 61 | 1017.3 |
| 20260507154037 | 15 | 202 | 11.3 | 16.1 | 0.00 | 0.00 | 0.00 | 59 | 1017.3 |
| 20260507153534 | 15 | 221 | 9.7 | 14.5 | 0.00 | 0.00 | 0.00 | 62 | 1017.0 |
| 20260507153030 | 15 | 265 | 17.7 | 24.1 | 0.00 | 0.00 | 0.00 | 62 | 1017.3 |
| 20260507152526 | 14 | 233 | 8.0 | 9.7 | 0.00 | 0.00 | 0.00 | 65 | 1017.3 |
| 20260507152023 | 14 | 256 | 11.3 | 16.1 | 0.00 | 0.00 | 0.00 | 65 | 1017.7 |
| 20260507151519 | 14 | 269 | 17.7 | 22.5 | 0.00 | 0.00 | 0.00 | 64 | 1017.3 |
| 20260507151016 | 13 | 197 | 11.3 | 17.7 | 0.00 | 0.00 | 0.00 | 65 | 1017.7 |
| 20260507150513 | 13 | 226 | 14.5 | 20.9 | 0.00 | 0.00 | 0.00 | 65 | 1017.7 |
| 20260507150010 | 13 | 228 | 6.4 | 8.0 | 0.00 | 0.00 | 0.00 | 66 | 1017.7 |
| 20260507145505 | 13 | 237 | 9.7 | 12.9 | 0.00 | 0.00 | 0.00 | 66 | 1017.7 |
| 20260507145003 | 13 | 218 | 11.3 | 12.9 | 0.00 | 0.00 | 0.00 | 66 | 1017.3 |
| 20260507144459 | 13 | 216 | 4.8 | 8.0 | 0.00 | 0.00 | 0.00 | 66 | 1017.7 |
| 20260507143956 | 13 | 208 | 9.7 | 12.9 | 0.00 | 0.00 | 0.00 | 66 | 1017.7 |
| 20260507143454 | 13 | 241 | 11.3 | 14.5 | 0.00 | 0.00 | 0.00 | 66 | 1017.3 |
| 20260507142950 | 13 | 204 | 11.3 | 16.1 | 0.00 | 0.00 | 0.00 | 66 | 1017.7 |
| 20260507142446 | 13 | 286 | 9.7 | 11.3 | 0.00 | 0.00 | 0.00 | 67 | 1017.7 |
| 20260507141943 | 12 | 234 | 8.0 | 11.3 | 0.00 | 0.00 | 0.00 | 67 | 1017.7 |
| 20260507141439 | 12 | 223 | 9.7 | 14.5 | 0.00 | 0.00 | 0.00 | 68 | 1017.3 |
| 20260507140936 | 12 | 197 | 8.0 | 9.7 | 0.00 | 0.00 | 0.00 | 68 | 1017.7 |
| 20260507140433 | 12 | 204 | 6.4 | 9.7 | 0.00 | 0.00 | 0.00 | 69 | 1017.7 |
| 20260507135931 | 12 | 188 | 3.2 | 4.8 | 0.00 | 0.00 | 0.00 | 70 | 1017.7 |
| 20260507135427 | 12 | 185 | 9.7 | 12.9 | 0.00 | 0.00 | 0.00 | 71 | 1017.7 |
| 20260507134924 | 11 | 245 | 8.0 | 9.7 | 0.00 | 0.00 | 0.00 | 72 | 1018.1 |
| 20260507134421 | 11 | 194 | 6.4 | 8.0 | 0.00 | 0.00 | 0.00 | 73 | 1017.7 |
| 20260507133916 | 11 | 241 | 4.8 | 8.0 | 0.00 | 0.00 | 0.00 | 74 | 1018.1 |
| 20260507133412 | 11 | 224 | 8.0 | 11.3 | 0.00 | 0.00 | 0.00 | 75 | 1017.7 |
| 20260507132906 | 11 | 208 | 4.8 | 8.0 | 0.00 | 0.00 | 0.00 | 75 | 1017.7 |
| 20260507132402 | 10 | 189 | 8.0 | 9.7 | 0.00 | 0.00 | 0.00 | 76 | 1018.1 |
| 20260507131858 | 10 | 178 | 3.2 | 3.2 | 0.00 | 0.00 | 0.00 | 77 | 1018.1 |
| 20260507131355 | 10 | 208 | 6.4 | 8.0 | 0.00 | 0.00 | 0.00 | 77 | 1017.7 |
| 20260507130852 | 10 | 196 | 8.0 | 12.9 | 0.00 | 0.00 | 0.00 | 77 | 1018.1 |
| 20260507130349 | 9 | 173 | 4.8 | 4.8 | 0.00 | 0.00 | 0.00 | 78 | 1017.7 |
| 20260507125848 | 9 | 200 | 6.4 | 8.0 | 0.00 | 0.00 | 0.00 | 79 | 1017.7 |
| 20260507125345 | 8 | 205 | 4.8 | 4.8 | 0.00 | 0.00 | 0.00 | 79 | 1018.1 |
| 20260507124843 | 8 | 195 | 4.8 | 4.8 | 0.00 | 0.00 | 0.00 | 79 | 1018.1 |
| 20260507124338 | 8 | 195 | 4.8 | 8.0 | 0.00 | 0.00 | 0.00 | 79 | 1018.1 |
| 20260507123837 | 8 | 205 | 8.0 | 11.3 | 0.00 | 0.00 | 0.00 | 79 | 1017.7 |
| 20260507123334 | 7 | 197 | 4.8 | 4.8 | 0.00 | 0.00 | 0.00 | 80 | 1018.1 |
| 20260507122830 | 7 | 194 | 6.4 | 8.0 | 0.00 | 0.00 | 0.00 | 80 | 1017.7 |
| 20260507122326 | 7 | 171 | 3.2 | 3.2 | 0.00 | 0.00 | 0.00 | 81 | 1018.1 |
| 20260507121823 | 7 | 179 | 1.6 | 1.6 | 0.00 | 0.00 | 0.00 | 81 | 1018.1 |
| 20260507121318 | 7 | 213 | 4.8 | 4.8 | 0.00 | 0.00 | 0.00 | 81 | 1017.7 |
| 20260507120814 | 6 | 183 | 3.2 | 4.8 | 0.00 | 0.00 | 0.00 | 82 | 1018.1 |
| 20260507120311 | 6 | 184 | 8.0 | 11.3 | 0.00 | 0.00 | 0.00 | 82 | 1018.1 |
| 20260507115807 | 6 | 179 | 6.4 | 9.7 | 0.00 | 0.00 | 0.00 | 82 | 1018.1 |
| 20260507115306 | 6 | 169 | 4.8 | 8.0 | 0.00 | 0.00 | 0.00 | 82 | 1018.1 |
| 20260507114759 | 6 | 161 | 4.8 | 4.8 | 0.00 | 0.00 | 0.00 | 82 | 1017.7 |
| 20260507114256 | 6 | 186 | 6.4 | 8.0 | 0.00 | 0.00 | 0.00 | 82 | 1018.1 |
| 20260507113754 | 6 | 190 | 6.4 | 9.7 | 0.00 | 0.00 | 0.00 | 82 | 1017.7 |
| 20260507113250 | 6 | 193 | 8.0 | 11.3 | 0.00 | 0.00 | 0.00 | 81 | 1018.1 |
| 20260507112748 | 6 | 186 | 9.7 | 12.9 | 0.00 | 0.00 | 0.00 | 81 | 1018.1 |
| 20260507112244 | 6 | 191 | 11.3 | 14.5 | 0.00 | 0.00 | 0.00 | 81 | 1017.7 |
| 20260507111743 | 6 | 204 | 9.7 | 11.3 | 0.00 | 0.00 | 0.00 | 80 | 1017.7 |
| 20260507111239 | 6 | 177 | 4.8 | 8.0 | 0.00 | 0.00 | 0.00 | 81 | 1017.7 |
| 20260507110735 | 6 | 197 | 9.7 | 12.9 | 0.00 | 0.00 | 0.00 | 81 | 1017.7 |
| 20260507110232 | 6 | 201 | 11.3 | 14.5 | 0.00 | 0.00 | 0.00 | 80 | 1017.7 |
| 20260507105728 | 6 | 208 | 11.3 | 12.9 | 0.00 | 0.00 | 0.00 | 80 | 1017.7 |
| 20260507105224 | 6 | 177 | 9.7 | 12.9 | 0.00 | 0.00 | 0.00 | 80 | 1017.7 |
| 20260507104722 | 6 | 198 | 11.3 | 17.7 | 0.00 | 0.00 | 0.00 | 80 | 1017.7 |
| 20260507104219 | 6 | 186 | 6.4 | 8.0 | 0.00 | 0.00 | 0.00 | 80 | 1017.3 |
| 20260507103714 | 6 | 177 | 6.4 | 8.0 | 0.00 | 0.00 | 0.00 | 80 | 1017.7 |
| 20260507103205 | 7 | 169 | 6.4 | 8.0 | 0.00 | 0.00 | 0.00 | 79 | 1018.1 |
| 20260507102702 | 7 | 189 | 8.0 | 11.3 | 0.00 | 0.00 | 0.00 | 79 | 1018.1 |
| 20260507102158 | 7 | 186 | 4.8 | 8.0 | 0.00 | 0.00 | 0.00 | 79 | 1017.7 |
| 20260507101654 | 7 | 187 | 4.8 | 4.8 | 0.00 | 0.00 | 0.00 | 78 | 1017.7 |
| 20260507101150 | 7 | 194 | 6.4 | 11.3 | 0.00 | 0.00 | 0.00 | 77 | 1017.7 |
| 20260507100648 | 7 | 170 | 3.2 | 3.2 | 0.00 | 0.00 | 0.00 | 77 | 1017.7 |
| 20260507100146 | 7 | 194 | 4.8 | 4.8 | 0.00 | 0.00 | 0.00 | 76 | 1017.7 |
| 20260507095643 | 7 | 200 | 4.8 | 8.0 | 0.00 | 0.00 | 0.00 | 76 | 1017.7 |
| 20260507095140 | 7 | 186 | 3.2 | 3.2 | 0.00 | 0.00 | 0.00 | 76 | 1017.7 |
| 20260507094636 | 7 | 172 | 3.2 | 3.2 | 0.00 | 0.00 | 0.00 | 76 | 1018.1 |
| 20260507094133 | 7 | 178 | 4.8 | 4.8 | 0.00 | 0.00 | 0.00 | 75 | 1017.7 |
| 20260507093630 | 7 | 205 | 4.8 | 4.8 | 0.00 | 0.00 | 0.00 | 75 | 1017.7 |
| 20260507093129 | 7 | 203 | 4.8 | 4.8 | 0.00 | 0.00 | 0.00 | 75 | 1018.1 |
| 20260507092626 | 7 | 186 | 3.2 | 3.2 | 0.00 | 0.00 | 0.00 | 75 | 1018.1 |
| 20260507092122 | 7 | 177 | 4.8 | 4.8 | 0.00 | 0.00 | 0.00 | 75 | 1017.7 |
| 20260507091619 | 7 | 187 | 3.2 | 3.2 | 0.00 | 0.00 | 0.00 | 74 | 1018.1 |
| 20260507091114 | 7 | 190 | 4.8 | 4.8 | 0.00 | 0.00 | 0.00 | 74 | 1018.1 |
| 20260507090610 | 7 | 179 | 3.2 | 3.2 | 0.00 | 0.00 | 0.00 | 74 | 1018.5 |
| 20260507090108 | 7 | 172 | 3.2 | 3.2 | 0.00 | 0.00 | 0.00 | 74 | 1018.1 |
| 20260507085604 | 7 | 172 | 3.2 | 3.2 | 0.00 | 0.00 | 0.00 | 74 | 1018.1 |
| 20260507085101 | 7 | 167 | 3.2 | 3.2 | 0.00 | 0.00 | 0.00 | 74 | 1018.1 |
| 20260507084558 | 7 | 190 | 3.2 | 4.8 | 0.00 | 0.00 | 0.00 | 74 | 1018.1 |
| 20260507084055 | 7 | 176 | 1.6 | 3.2 | 0.00 | 0.00 | 0.00 | 73 | 1018.1 |
| 20260507083551 | 7 | 177 | 3.2 | 3.2 | 0.00 | 0.00 | 0.00 | 73 | 1018.5 |
| 20260507083048 | 7 | 167 | 1.6 | 3.2 | 0.00 | 0.00 | 0.00 | 73 | 1018.1 |
| 20260507082544 | 7 | 176 | 1.6 | 3.2 | 0.00 | 0.00 | 0.00 | 73 | 1018.1 |
| 20260507082041 | 7 | 167 | 1.6 | 3.2 | 0.00 | 0.00 | 0.00 | 73 | 1018.1 |
| 20260507081537 | 7 | 179 | 3.2 | 3.2 | 0.00 | 0.00 | 0.00 | 73 | 1018.1 |
| 20260507081034 | 7 | 183 | 1.6 | 3.2 | 0.00 | 0.00 | 0.00 | 73 | 1018.1 |
| 20260507080530 | 7 | 189 | 1.6 | 3.2 | 0.00 | 0.00 | 0.00 | 73 | 1018.1 |
| 20260507080026 | 7 | 185 | 4.8 | 4.8 | 0.00 | 0.00 | 0.00 | 73 | 1018.1 |
| 20260507075522 | 7 | 187 | 3.2 | 3.2 | 0.00 | 0.00 | 0.00 | 73 | 1018.5 |
| 20260507075019 | 8 | 165 | 1.6 | 3.2 | 0.00 | 0.00 | 0.00 | 73 | 1018.1 |
| 20260507074515 | 8 | 174 | 3.2 | 3.2 | 0.00 | 0.00 | 0.00 | 72 | 1018.5 |
| 20260507074014 | 8 | 199 | 4.8 | 4.8 | 0.00 | 0.00 | 0.00 | 71 | 1018.1 |
| 20260507073510 | 8 | 185 | 3.2 | 3.2 | 0.00 | 0.00 | 0.00 | 70 | 1018.5 |
| 20260507073006 | 8 | 167 | 1.6 | 1.6 | 0.00 | 0.00 | 0.00 | 70 | 1018.5 |
| 20260507072504 | 8 | 173 | 3.2 | 3.2 | 0.00 | 0.00 | 0.00 | 69 | 1018.5 |
| 20260507072001 | 8 | 166 | 1.6 | 3.2 | 0.00 | 0.00 | 0.00 | 69 | 1018.1 |
| 20260507071458 | 8 | 156 | 1.6 | 1.6 | 0.00 | 0.00 | 0.00 | 69 | 1018.5 |
| 20260507070954 | 8 | 161 | 1.6 | 1.6 | 0.00 | 0.00 | 0.00 | 68 | 1018.5 |
| 20260507070452 | 8 | 177 | 4.8 | 9.7 | 0.00 | 0.00 | 0.00 | 68 | 1018.5 |
| 20260507065949 | 8 | 191 | 4.8 | 4.8 | 0.00 | 0.00 | 0.00 | 67 | 1018.5 |
| 20260507065445 | 8 | 192 | 8.0 | 9.7 | 0.00 | 0.00 | 0.00 | 67 | 1018.8 |
| 20260507064943 | 8 | 192 | 11.3 | 14.5 | 0.00 | 0.00 | 0.00 | 67 | 1018.8 |
| 20260507064441 | 8 | 166 | 4.8 | 8.0 | 0.00 | 0.00 | 0.00 | 68 | 1018.5 |
| 20260507063938 | 8 | 163 | 4.8 | 4.8 | 0.00 | 0.00 | 0.00 | 67 | 1018.8 |
| 20260507063435 | 9 | 189 | 11.3 | 12.9 | 0.00 | 0.00 | 0.00 | 66 | 1018.8 |
| 20260507062932 | 9 | 179 | 4.8 | 8.0 | 0.00 | 0.00 | 0.00 | 66 | 1018.8 |
| 20260507062429 | 9 | 152 | 3.2 | 4.8 | 0.00 | 0.00 | 0.00 | 66 | 1018.8 |
| 20260507061926 | 9 | 155 | 1.6 | 1.6 | 0.00 | 0.00 | 0.00 | 67 | 1018.8 |
| 20260507061424 | 9 | 157 | 3.2 | 3.2 | 0.00 | 0.00 | 0.00 | 66 | 1019.1 |
| 20260507060923 | 9 | 167 | 4.8 | 8.0 | 0.00 | 0.00 | 0.00 | 65 | 1019.1 |
| 20260507060419 | 9 | 158 | 1.6 | 1.6 | 0.00 | 0.00 | 0.00 | 64 | 1018.8 |
| 20260507055916 | 9 | 164 | 4.8 | 4.8 | 0.00 | 0.00 | 0.00 | 64 | 1018.5 |
| 20260507055410 | 10 | 164 | 4.8 | 4.8 | 0.00 | 0.00 | 0.00 | 64 | 1018.8 |
| 20260507054902 | 10 | 186 | 8.0 | 9.7 | 0.00 | 0.00 | 0.00 | 63 | 1018.5 |
| 20260507054358 | 10 | 173 | 4.8 | 9.7 | 0.00 | 0.00 | 0.00 | 63 | 1018.8 |
| 20260507053856 | 10 | 160 | 4.8 | 8.0 | 0.00 | 0.00 | 0.00 | 62 | 1018.8 |
| 20260507053353 | 10 | 170 | 4.8 | 4.8 | 0.00 | 0.00 | 0.00 | 62 | 1018.8 |
| 20260507052852 | 10 | 164 | 3.2 | 4.8 | 0.00 | 0.00 | 0.00 | 61 | 1018.8 |
| 20260507052349 | 10 | 179 | 4.8 | 8.0 | 0.00 | 0.00 | 0.00 | 61 | 1018.8 |
| 20260507051846 | 10 | 195 | 9.7 | 11.3 | 0.00 | 0.00 | 0.00 | 61 | 1018.8 |
| 20260507051344 | 10 | 165 | 4.8 | 8.0 | 0.00 | 0.00 | 0.00 | 61 | 1018.8 |
| 20260507050840 | 10 | 193 | 9.7 | 11.3 | 0.00 | 0.00 | 0.00 | 61 | 1018.8 |
| 20260507050337 | 10 | 194 | 9.7 | 11.3 | 0.00 | 0.00 | 0.00 | 62 | 1018.5 |
| 20260507045833 | 10 | 171 | 8.0 | 9.7 | 0.00 | 0.00 | 0.00 | 62 | 1018.8 |
| 20260507045330 | 10 | 180 | 4.8 | 8.0 | 0.00 | 0.00 | 0.00 | 62 | 1019.1 |
| 20260507044827 | 10 | 183 | 6.4 | 9.7 | 0.00 | 0.00 | 0.00 | 62 | 1018.8 |
| 20260507044324 | 10 | 187 | 3.2 | 4.8 | 0.00 | 0.00 | 0.00 | 62 | 1018.8 |
| 20260507043820 | 10 | 180 | 3.2 | 3.2 | 0.00 | 0.00 | 0.00 | 62 | 1018.8 |
| 20260507043316 | 10 | 174 | 3.2 | 3.2 | 0.00 | 0.00 | 0.00 | 63 | 1018.8 |
| 20260507042813 | 10 | 160 | 1.6 | 1.6 | 0.00 | 0.00 | 0.00 | 63 | 1019.1 |
| 20260507042308 | 10 | 159 | 1.6 | 1.6 | 0.00 | 0.00 | 0.00 | 62 | 1019.1 |
| 20260507041806 | 10 | 169 | 3.2 | 3.2 | 0.00 | 0.00 | 0.00 | 61 | 1018.8 |
| 20260507041302 | 10 | 181 | 4.8 | 4.8 | 0.00 | 0.00 | 0.00 | 62 | 1018.5 |
| 20260507040759 | 10 | 185 | 3.2 | 3.2 | 0.00 | 0.00 | 0.00 | 63 | 1018.8 |
| 20260507040255 | 10 | 196 | 4.8 | 4.8 | 0.00 | 0.00 | 0.00 | 64 | 1018.8 |
| 20260507035751 | 10 | 184 | 3.2 | 4.8 | 0.00 | 0.00 | 0.00 | 66 | 1019.1 |
| 20260507035247 | 10 | 156 | 1.6 | 1.6 | 0.00 | 0.00 | 0.00 | 67 | 1019.1 |
| 20260507034745 | 10 | 158 | 1.6 | 3.2 | 0.00 | 0.00 | 0.00 | 67 | 1019.1 |
| 20260507034241 | 10 | 152 | 1.6 | 1.6 | 0.00 | 0.00 | 0.00 | 66 | 1019.1 |
| 20260507033740 | 10 | 147 | 0.0 | 0.0 | 0.00 | 0.00 | 0.00 | 65 | 1019.1 |
| 20260507033237 | 10 | 149 | 0.0 | 1.6 | 0.00 | 0.00 | 0.00 | 64 | 1018.8 |
| 20260507032734 | 10 | 153 | 1.6 | 1.6 | 0.00 | 0.00 | 0.00 | 63 | 1019.1 |
| 20260507032230 | 10 | 150 | 1.6 | 1.6 | 0.00 | 0.00 | 0.00 | 63 | 1019.1 |
| 20260507031727 | 10 | 147 | 0.0 | 1.6 | 0.00 | 0.00 | 0.00 | 63 | 1018.8 |
| 20260507031223 | 10 | 143 | 0.0 | 0.0 | 0.00 | 0.00 | 0.00 | 63 | 1018.8 |
| 20260507030720 | 10 | 142 | 0.0 | 0.0 | 0.00 | 0.00 | 0.00 | 63 | 1018.8 |
| 20260507030218 | 10 | 142 | 1.6 | 1.6 | 0.00 | 0.00 | 0.00 | 62 | 1018.8 |
| 20260507025715 | 10 | 141 | 0.0 | 1.6 | 0.00 | 0.00 | 0.00 | 61 | 1018.8 |
| 20260507025212 | 10 | 144 | 0.0 | 0.0 | 0.00 | 0.00 | 0.00 | 62 | 1018.8 |
| 20260507024710 | 10 | 148 | 0.0 | 0.0 | 0.00 | 0.00 | 0.00 | 60 | 1018.8 |
| 20260507024207 | 10 | 148 | 0.0 | 0.0 | 0.00 | 0.00 | 0.00 | 59 | 1018.5 |
| 20260507023702 | 10 | 139 | 0.0 | 1.6 | 0.00 | 0.00 | 0.00 | 59 | 1018.5 |
| 20260507023200 | 10 | 135 | 0.0 | 0.0 | 0.00 | 0.00 | 0.00 | 61 | 1018.8 |
| 20260507022656 | 10 | 135 | 0.0 | 0.0 | 0.00 | 0.00 | 0.00 | 61 | 1018.8 |
| 20260507022152 | 10 | 110 | 0.0 | 0.0 | 0.00 | 0.00 | 0.00 | 58 | 1018.5 |
| 20260507021649 | 11 | 110 | 0.0 | 0.0 | 0.00 | 0.00 | 0.00 | 58 | 1018.5 |
| 20260507021144 | 11 | 137 | 1.6 | 1.6 | 0.00 | 0.00 | 0.00 | 56 | 1018.5 |
| 20260507020643 | 11 | 135 | 1.6 | 3.2 | 0.00 | 0.00 | 0.00 | 56 | 1018.5 |
| 20260507020138 | 11 | 140 | 0.0 | 0.0 | 0.00 | 0.00 | 0.00 | 55 | 1018.5 |
| 20260507015637 | 11 | 139 | 0.0 | 0.0 | 0.00 | 0.00 | 0.00 | 55 | 1018.5 |
| 20260507015134 | 11 | 139 | 0.0 | 0.0 | 0.00 | 0.00 | 0.00 | 54 | 1018.5 |
| 20260507014631 | 12 | 139 | 0.0 | 0.0 | 0.00 | 0.00 | 0.00 | 50 | 1018.1 |
| 20260507014127 | 12 | 140 | 0.0 | 0.0 | 0.00 | 0.00 | 0.00 | 48 | 1018.5 |
| 20260507013624 | 12 | 124 | 1.6 | 3.2 | 0.00 | 0.00 | 0.00 | 47 | 1018.1 |
| 20260507013120 | 12 | 140 | 0.0 | 1.6 | 0.00 | 0.00 | 0.00 | 48 | 1018.5 |
| 20260507012618 | 12 | 139 | 1.6 | 1.6 | 0.00 | 0.00 | 0.00 | 48 | 1018.5 |
| 20260507012113 | 12 | 133 | 0.0 | 0.0 | 0.00 | 0.00 | 0.00 | 47 | 1018.1 |
| 20260507011612 | 12 | 125 | 3.2 | 4.8 | 0.00 | 0.00 | 0.00 | 46 | 1018.1 |
| 20260507011108 | 12 | 125 | 1.6 | 1.6 | 0.00 | 0.00 | 0.00 | 46 | 1018.1 |
| 20260507010603 | 13 | 131 | 0.0 | 0.0 | 0.00 | 0.00 | 0.00 | 48 | 1017.7 |
| 20260507010058 | 13 | 129 | 0.0 | 1.6 | 0.00 | 0.00 | 0.00 | 47 | 1017.7 |
| 20260507005556 | 13 | 132 | 1.6 | 1.6 | 0.00 | 0.00 | 0.00 | 45 | 1018.1 |
| 20260507005052 | 13 | 51 | 4.8 | 4.8 | 0.00 | 0.00 | 0.00 | 44 | 1017.7 |
| 20260507004549 | 13 | 337 | 3.2 | 4.8 | 0.00 | 0.00 | 0.00 | 44 | 1018.1 |
| 20260507004047 | 13 | 309 | 8.0 | 9.7 | 0.00 | 0.00 | 0.00 | 42 | 1018.1 |
| 20260507003543 | 14 | 302 | 8.0 | 9.7 | 0.00 | 0.00 | 0.00 | 40 | 1018.1 |
| 20260507003038 | 15 | 315 | 4.8 | 4.8 | 0.00 | 0.00 | 0.00 | 40 | 1017.7 |
| 20260507002535 | 15 | 309 | 4.8 | 4.8 | 0.00 | 0.00 | 0.00 | 40 | 1017.7 |
| 20260507002030 | 15 | 104 | 3.2 | 3.2 | 0.00 | 0.00 | 0.00 | 39 | 1018.1 |
| 20260507001527 | 15 | 356 | 4.8 | 4.8 | 0.00 | 0.00 | 0.00 | 39 | 1017.7 |
| 20260507001019 | 15 | 328 | 4.8 | 4.8 | 0.00 | 0.00 | 0.00 | 39 | 1017.7 |
| 20260507000515 | 15 | 357 | 4.8 | 8.0 | 0.00 | 0.00 | 0.00 | 39 | 1017.7 |
| 20260507000011 | 15 | 10 | 4.8 | 4.8 | 0.00 | 0.00 | 0.00 | 38 | 1017.7 |
| 20260506235508 | 15 | 9 | 4.8 | 4.8 | 0.00 | 0.00 | 0.00 | 38 | 1017.7 |
| 20260506235004 | 15 | 28 | 4.8 | 4.8 | 0.00 | 0.00 | 0.00 | 37 | 1018.1 |
| 20260506234502 | 15 | 353 | 4.8 | 4.8 | 0.00 | 0.00 | 0.00 | 38 | 1018.1 |
| 20260506233959 | 15 | 40 | 4.8 | 4.8 | 0.00 | 0.00 | 0.00 | 37 | 1017.7 |
| 20260506233455 | 15 | 12 | 6.4 | 8.0 | 0.00 | 0.00 | 0.00 | 38 | 1018.1 |
| 20260506232952 | 15 | 68 | 8.0 | 11.3 | 0.00 | 0.00 | 0.00 | 38 | 1017.7 |
| 20260506232448 | 15 | 69 | 3.2 | 3.2 | 0.00 | 0.00 | 0.00 | 39 | 1017.7 |
| 20260506231944 | 15 | 23 | 6.4 | 8.0 | 0.00 | 0.00 | 0.00 | 38 | 1017.7 |
| 20260506231441 | 15 | 4 | 8.0 | 9.7 | 0.00 | 0.00 | 0.00 | 38 | 1018.1 |
| 20260506230938 | 15 | 276 | 6.4 | 8.0 | 0.00 | 0.00 | 0.00 | 36 | 1018.1 |
| 20260506230435 | 15 | 354 | 9.7 | 12.9 | 0.00 | 0.00 | 0.00 | 38 | 1018.1 |
| 20260506225932 | 15 | 0 | 9.7 | 12.9 | 0.00 | 0.00 | 0.00 | 39 | 1017.7 |
| 20260506225429 | 15 | 40 | 8.0 | 8.0 | 0.00 | 0.00 | 0.00 | 38 | 1017.7 |
| 20260506224926 | 15 | 6 | 8.0 | 9.7 | 0.00 | 0.00 | 0.00 | 37 | 1017.7 |
| 20260506224423 | 15 | 50 | 4.8 | 4.8 | 0.00 | 0.00 | 0.00 | 39 | 1017.7 |
| 20260506223919 | 15 | 9 | 8.0 | 11.3 | 0.00 | 0.00 | 0.00 | 38 | 1017.7 |
| 20260506223415 | 15 | 57 | 9.7 | 11.3 | 0.00 | 0.00 | 0.00 | 37 | 1017.7 |
| 20260506222912 | 15 | 37 | 4.8 | 4.8 | 0.00 | 0.00 | 0.00 | 38 | 1017.7 |
| 20260506222409 | 15 | 45 | 4.8 | 4.8 | 0.00 | 0.00 | 0.00 | 39 | 1018.1 |
| 20260506221906 | 15 | 40 | 4.8 | 8.0 | 0.00 | 0.00 | 0.00 | 40 | 1018.1 |
| 20260506221402 | 15 | 95 | 3.2 | 3.2 | 0.00 | 0.00 | 0.00 | 37 | 1017.7 |
| 20260506220854 | 15 | 53 | 4.8 | 9.7 | 0.00 | 0.00 | 0.00 | 39 | 1018.1 |
| 20260506220350 | 15 | 22 | 6.4 | 8.0 | 0.00 | 0.00 | 0.00 | 39 | 1017.7 |
| 20260506215847 | 15 | 295 | 11.3 | 12.9 | 0.00 | 0.00 | 0.00 | 39 | 1018.5 |
| 20260506215342 | 15 | 64 | 4.8 | 4.8 | 0.00 | 0.00 | 0.00 | 38 | 1018.1 |
| 20260506214839 | 15 | 84 | 4.8 | 8.0 | 0.00 | 0.00 | 0.00 | 39 | 1018.1 |
| 20260506214336 | 15 | 95 | 6.4 | 9.7 | 0.00 | 0.00 | 0.00 | 38 | 1018.5 |
| 20260506213834 | 15 | 289 | 8.0 | 9.7 | 0.00 | 0.00 | 0.00 | 38 | 1018.1 |
| 20260506213331 | 15 | 3 | 9.7 | 11.3 | 0.00 | 0.00 | 0.00 | 38 | 1018.5 |
| 20260506212828 | 15 | 27 | 8.0 | 9.7 | 0.00 | 0.00 | 0.00 | 38 | 1018.5 |
| 20260506212324 | 15 | 127 | 3.2 | 4.8 | 0.00 | 0.00 | 0.00 | 40 | 1018.5 |
| 20260506211819 | 15 | 20 | 8.0 | 11.3 | 0.00 | 0.00 | 0.00 | 38 | 1018.8 |
| 20260506211315 | 15 | 317 | 8.0 | 11.3 | 0.00 | 0.00 | 0.00 | 38 | 1018.5 |
| 20260506210813 | 15 | 348 | 8.0 | 11.3 | 0.00 | 0.00 | 0.00 | 39 | 1018.8 |
| 20260506210309 | 15 | 54 | 4.8 | 4.8 | 0.00 | 0.00 | 0.00 | 41 | 1018.8 |
| 20260506205807 | 15 | 0 | 8.0 | 12.9 | 0.00 | 0.00 | 0.00 | 39 | 1018.5 |
| 20260506205305 | 15 | 346 | 8.0 | 9.7 | 0.00 | 0.00 | 0.00 | 38 | 1018.8 |
| 20260506204759 | 15 | 42 | 11.3 | 12.9 | 0.00 | 0.00 | 0.00 | 38 | 1018.8 |
| 20260506204257 | 15 | 42 | 6.4 | 9.7 | 0.00 | 0.00 | 0.00 | 41 | 1019.1 |
| 20260506203754 | 15 | 249 | 3.2 | 3.2 | 0.00 | 0.00 | 0.00 | 40 | 1019.1 |
| 20260506203252 | 14 | 12 | 4.8 | 8.0 | 0.00 | 0.00 | 0.00 | 41 | 1019.1 |
| 20260506202748 | 15 | 11 | 8.0 | 11.3 | 0.00 | 0.00 | 0.00 | 40 | 1019.1 |
| 20260506202245 | 14 | 50 | 4.8 | 4.8 | 0.00 | 0.00 | 0.00 | 42 | 1019.1 |
| 20260506201742 | 15 | 354 | 12.9 | 14.5 | 0.00 | 0.00 | 0.00 | 40 | 1019.1 |
| 20260506201238 | 15 | 328 | 8.0 | 9.7 | 0.00 | 0.00 | 0.00 | 40 | 1019.1 |
| 20260506200736 | 15 | 67 | 4.8 | 8.0 | 0.00 | 0.00 | 0.00 | 39 | 1019.1 |
| 20260506200232 | 14 | 350 | 11.3 | 12.9 | 0.00 | 0.00 | 0.00 | 38 | 1019.5 |
| 20260506195728 | 15 | 29 | 4.8 | 4.8 | 0.00 | 0.00 | 0.00 | 39 | 1019.5 |
| 20260506195225 | 16 | 137 | 3.2 | 3.2 | 0.00 | 0.00 | 0.00 | 37 | 1019.5 |
| 20260506194722 | 15 | 131 | 1.6 | 1.6 | 0.00 | 0.00 | 0.00 | 39 | 1019.1 |
| 20260506194219 | 14 | 65 | 4.8 | 4.8 | 0.00 | 0.00 | 0.00 | 41 | 1019.5 |
| 20260506193717 | 14 | 56 | 4.8 | 4.8 | 0.00 | 0.00 | 0.00 | 39 | 1019.5 |
| 20260506193213 | 14 | 113 | 3.2 | 3.2 | 0.00 | 0.00 | 0.00 | 40 | 1019.5 |
| 20260506192709 | 14 | 28 | 1.6 | 4.8 | 0.00 | 0.00 | 0.00 | 39 | 1019.8 |
| 20260506192206 | 14 | 94 | 4.8 | 4.8 | 0.00 | 0.00 | 0.00 | 38 | 1019.5 |
| 20260506191658 | 13 | 5 | 8.0 | 9.7 | 0.00 | 0.00 | 0.00 | 41 | 1019.5 |
| 20260506191153 | 14 | 57 | 4.8 | 8.0 | 0.00 | 0.00 | 0.00 | 41 | 1019.5 |
| 20260506190651 | 13 | 64 | 4.8 | 4.8 | 0.00 | 0.00 | 0.00 | 41 | 1019.5 |
| 20260506190147 | 13 | 358 | 6.4 | 9.7 | 0.00 | 0.00 | 0.00 | 39 | 1019.8 |
| 20260506185645 | 14 | 47 | 4.8 | 4.8 | 0.00 | 0.00 | 0.00 | 40 | 1019.5 |
| 20260506185141 | 14 | 324 | 6.4 | 8.0 | 0.00 | 0.00 | 0.00 | 45 | 1019.5 |
| 20260506184639 | 13 | 107 | 4.8 | 9.7 | 0.00 | 0.00 | 0.00 | 42 | 1019.8 |
| 20260506184136 | 14 | 69 | 8.0 | 9.7 | 0.00 | 0.00 | 0.00 | 41 | 1019.8 |
| 20260506183632 | 13 | 59 | 4.8 | 9.7 | 0.00 | 0.00 | 0.00 | 40 | 1019.8 |
| 20260506183128 | 13 | 90 | 6.4 | 9.7 | 0.00 | 0.00 | 0.00 | 41 | 1019.8 |
| 20260506182626 | 13 | 347 | 6.4 | 9.7 | 0.00 | 0.00 | 0.00 | 39 | 1020.2 |
| 20260506182122 | 13 | 49 | 6.4 | 9.7 | 0.00 | 0.00 | 0.00 | 42 | 1019.8 |
| 20260506181620 | 13 | 3 | 4.8 | 8.0 | 0.00 | 0.00 | 0.00 | 42 | 1020.2 |
| 20260506181117 | 13 | 321 | 6.4 | 8.0 | 0.00 | 0.00 | 0.00 | 43 | 1019.8 |
| 20260506180614 | 12 | 294 | 8.0 | 12.9 | 0.00 | 0.00 | 0.00 | 41 | 1020.2 |
| 20260506180111 | 12 | 81 | 8.0 | 11.3 | 0.00 | 0.00 | 0.00 | 40 | 1019.8 |
| 20260506175607 | 12 | 105 | 4.8 | 4.8 | 0.00 | 0.00 | 0.00 | 43 | 1020.2 |
| 20260506175103 | 12 | 43 | 4.8 | 8.0 | 0.00 | 0.00 | 0.00 | 43 | 1020.2 |
| 20260506174602 | 12 | 65 | 8.0 | 11.3 | 0.00 | 0.00 | 0.00 | 43 | 1020.2 |
| 20260506174058 | 12 | 99 | 3.2 | 4.8 | 0.00 | 0.00 | 0.00 | 42 | 1020.2 |
| 20260506173556 | 12 | 42 | 8.0 | 11.3 | 0.00 | 0.00 | 0.00 | 43 | 1020.2 |
| 20260506173052 | 13 | 17 | 8.0 | 11.3 | 0.00 | 0.00 | 0.00 | 41 | 1020.2 |
| 20260506172550 | 13 | 45 | 6.4 | 8.0 | 0.00 | 0.00 | 0.00 | 44 | 1020.5 |
| 20260506172046 | 12 | 31 | 6.4 | 9.7 | 0.00 | 0.00 | 0.00 | 40 | 1020.2 |
| 20260506171543 | 13 | 87 | 3.2 | 4.8 | 0.00 | 0.00 | 0.00 | 42 | 1020.2 |
| 20260506171040 | 13 | 62 | 1.6 | 3.2 | 0.00 | 0.00 | 0.00 | 42 | 1020.2 |
| 20260506170538 | 13 | 327 | 6.4 | 9.7 | 0.00 | 0.00 | 0.00 | 44 | 1020.2 |
| 20260506170030 | 12 | 29 | 4.8 | 4.8 | 0.00 | 0.00 | 0.00 | 43 | 1020.5 |
| 20260506165528 | 12 | 13 | 4.8 | 8.0 | 0.00 | 0.00 | 0.00 | 43 | 1020.2 |
| 20260506165024 | 12 | 22 | 3.2 | 4.8 | 0.00 | 0.00 | 0.00 | 45 | 1020.5 |
| 20260506164521 | 12 | 24 | 9.7 | 12.9 | 0.00 | 0.00 | 0.00 | 44 | 1020.5 |
| 20260506164018 | 12 | 50 | 4.8 | 4.8 | 0.00 | 0.00 | 0.00 | 44 | 1020.2 |
| 20260506163514 | 12 | 100 | 1.6 | 3.2 | 0.00 | 0.00 | 0.00 | 44 | 1020.2 |
| 20260506163010 | 12 | 94 | 3.2 | 4.8 | 0.00 | 0.00 | 0.00 | 45 | 1020.2 |
| 20260506162507 | 12 | 4 | 9.7 | 11.3 | 0.00 | 0.00 | 0.00 | 46 | 1020.2 |
| 20260506162004 | 12 | 73 | 6.4 | 8.0 | 0.00 | 0.00 | 0.00 | 47 | 1020.5 |
| 20260506161501 | 12 | 21 | 4.8 | 8.0 | 0.00 | 0.00 | 0.00 | 46 | 1020.2 |
| 20260506160958 | 12 | 0 | 4.8 | 4.8 | 0.00 | 0.00 | 0.00 | 47 | 1019.8 |
| 20260506160455 | 12 | 6 | 6.4 | 8.0 | 0.00 | 0.00 | 0.00 | 45 | 1019.8 |